Weather History for Rutherfordton, NC

Change the Weather History Date:

Tuesday, November 26, 2013

  Actual Average (KAVL) Record (KAVL)
Temperature  
Mean Temperature 37 °F 44 °F  
Max Temperature 43 °F 55 °F 75 °F (1985)
Min Temperature 31 °F 33 °F 6 °F (1950)
Degree Days  
Heating Degree Days 28 21  
Month to date heating degree days 445  
Since 1 July heating degree days 780  
Cooling Degree Days 0 0  
Month to date cooling degree days 0  
Year to date cooling degree days 862  
Moisture  
Dew Point 35 °F    
Average Humidity 93    
Maximum Humidity 100    
Minimum Humidity 46    
Precipitation  
Precipitation 3.29 in 0.13 in 2.59 in (2013)
Month to date precipitation 3.10  
Year to date precipitation 41.43  
Snow  
Snow 0.00 in 0.00 in 0.30 in (1953)
Month to date snowfall 0.1  
Since 1 July snowfall 0.1  
Since 1 September snowfall 0.1  
Snow Depth -    
Sea Level Pressure  
Sea Level Pressure 29.96 in    
Wind  
Wind Speed 5 mph (North)    
Max Wind Speed 12 mph    
Max Gust Speed 20 mph    
Visibility 4 miles    
Events Rain , Snow , Thunderstorm    
T = Trace of Precipitation, MM = Missing Value Source: NWS Daily Summary

Daily Weather History Graph

Daily Weather History Graph

Search for Another Location

Airport:

Trip Planner

Search our weather history database for the weather conditions in past years. The results will help you decide how hot, cold, wet, or windy it might be!

Date:

Astronomy

Nov. 26, 2013 Rise Set
Actual Time 7:14 AM EST 5:16 PM EST
Civil Twilight 6:46 AM EST 5:43 PM EST
Nautical Twilight 6:15 AM EST 6:15 PM EST
Astronomical Twilight 5:44 AM EST 6:45 PM EST
Moon 12:30 AM EST 1:09 PM EST
Length of Visible Light 10h 57m
Length of Day
10h 02m
Last Quarter, 41% of the Moon is Illuminated
Nov 26
Last Quarter
Dec 2
New
Dec 9
First Quarter
Dec 17
Full
Dec 25
Last Quarter

Hourly Weather History & Observations

Time (EST) Temp. Windchill Dew Point Humidity Pressure Visibility Wind Dir Wind Speed Gust Speed Precip Events Conditions
12:15 AM 35.1 °F 32.2 °F 16.2 °F 46% 30.31 in 10.0 mi NNW 3.5 mph - N/A   Light Drizzle
12:35 AM 34.5 °F 30.4 °F 17.2 °F 49% 30.31 in 10.0 mi NNW 4.6 mph - N/A   Overcast
12:55 AM 34.0 °F 27.2 °F 19.0 °F 54% 30.29 in 10.0 mi North 8.1 mph - N/A   Overcast
1:15 AM 33.3 °F 27.9 °F 21.7 °F 63% 30.29 in 10.0 mi North 5.8 mph - N/A   Overcast
1:35 AM 32.9 °F 27.5 °F 23.5 °F 68% 30.27 in 10.0 mi North 5.8 mph - N/A   Overcast
1:55 AM 32.9 °F 29.8 °F 23.9 °F 69% 30.28 in 10.0 mi North 3.5 mph - N/A   Overcast
2:15 AM 32.9 °F 28.5 °F 23.9 °F 69% 30.27 in 10.0 mi North 4.6 mph - N/A   Light Drizzle
2:35 AM 32.9 °F 26.7 °F 23.2 °F 67% 30.26 in 10.0 mi North 6.9 mph - N/A   Overcast
2:55 AM 32.9 °F 28.5 °F 23.7 °F 69% 30.25 in 10.0 mi NNE 4.6 mph - N/A Rain Light Rain
3:15 AM 32.9 °F 29.8 °F 25.0 °F 73% 30.25 in 10.0 mi NNE 3.5 mph - N/A   Overcast
3:35 AM 32.4 °F - 26.2 °F 78% 30.25 in 7.0 mi Calm Calm - N/A Rain Rain
3:55 AM 32.0 °F - 27.1 °F 82% 30.25 in 7.0 mi Calm Calm - N/A Rain Light Rain
4:15 AM 32.0 °F 28.7 °F 28.9 °F 88% 30.24 in 3.0 mi North 3.5 mph - 0.01 in Rain Light Rain
4:35 AM 32.0 °F 28.7 °F 29.7 °F 91% 30.24 in 4.0 mi NNE 3.5 mph - 0.02 in Rain Light Rain
4:55 AM 31.8 °F - 30.4 °F 94% 30.22 in 4.0 mi Calm Calm - 0.04 in Rain Light Freezing Rain
5:15 AM 31.8 °F - 30.4 °F 94% 30.21 in 3.0 mi Calm Calm - 0.01 in Rain Light Freezing Rain
5:35 AM 31.8 °F - 30.7 °F 96% 30.21 in 3.0 mi Calm Calm - 0.03 in Rain Light Freezing Rain
5:55 AM 32.0 °F 28.7 °F 31.3 °F 97% 30.19 in 2.5 mi NNE 3.5 mph - 0.05 in Rain Rain
6:15 AM 32.0 °F 28.7 °F 32.0 °F 100% 30.18 in 1.8 mi North 3.5 mph - 0.03 in Rain Rain
6:35 AM 32.2 °F 27.7 °F 32.0 °F 99% 30.17 in 1.5 mi NNE 4.6 mph - 0.10 in   Overcast
6:55 AM 32.5 °F 27.1 °F 32.2 °F 99% 30.14 in 1.8 mi NNE 5.8 mph - 0.17 in Rain Rain
7:15 AM 32.9 °F - 32.4 °F 98% 30.14 in 2.0 mi Calm Calm - 0.06 in   Overcast
7:35 AM 32.9 °F 28.5 °F 32.7 °F 99% 30.13 in 1.8 mi NNW 4.6 mph - 0.13 in Snow Light Snow
7:55 AM 33.3 °F 30.2 °F 33.1 °F 99% 30.12 in 1.8 mi NNW 3.5 mph - 0.20 in   Overcast
8:15 AM 33.8 °F 27.7 °F 33.4 °F 99% 30.13 in 1.2 mi North 6.9 mph - 0.08 in Snow Light Snow
8:35 AM 34.7 °F 28.8 °F 34.2 °F 98% 30.12 in 0.8 mi North 6.9 mph - 0.20 in Snow Light Snow
8:55 AM 35.2 °F 28.1 °F 34.9 °F 99% 30.09 in 1.0 mi NNE 9.2 mph - 0.30 in   Overcast
9:15 AM 36.0 °F 33.3 °F 35.6 °F 99% 30.09 in 1.0 mi North 3.5 mph - 0.08 in   Overcast
9:35 AM 36.5 °F 32.7 °F 36.1 °F 99% 30.08 in 1.5 mi NNW 4.6 mph - 0.15 in Rain Rain
9:55 AM 35.6 °F 30.7 °F 35.6 °F 100% 30.06 in 1.2 mi NNW 5.8 mph - 0.25 in   Overcast
10:15 AM 35.6 °F 29.2 °F 35.2 °F 99% 30.05 in 1.5 mi NNW 8.1 mph - 0.06 in Rain Rain
10:35 AM 35.8 °F 30.9 °F 35.6 °F 99% 30.04 in 1.2 mi North 5.8 mph - 0.15 in   Overcast
10:55 AM 35.8 °F 30.1 °F 35.6 °F 99% 30.03 in 1.0 mi North 6.9 mph - 0.25 in   Overcast
11:15 AM 35.8 °F 30.9 °F 35.6 °F 99% 30.02 in 0.8 mi North 5.8 mph - 0.08 in   Overcast
11:35 AM 35.8 °F 29.4 °F 35.6 °F 99% 30.00 in 1.0 mi North 8.1 mph - 0.18 in   Overcast
11:55 AM 35.8 °F 30.9 °F 35.6 °F 99% 29.99 in 1.0 mi NNW 5.8 mph - 0.27 in   Overcast
12:15 PM 36.0 °F 28.0 °F 35.6 °F 99% 29.98 in 1.0 mi North 11.5 mph - 0.07 in   Overcast
12:35 PM 36.5 °F 32.7 °F 36.0 °F 98% 29.95 in 1.2 mi NE 4.6 mph - 0.16 in Rain Rain
12:55 PM 37.2 °F 31.9 °F 36.5 °F 97% 29.94 in 1.0 mi NNE 6.9 mph - 0.23 in Rain Light Rain
1:15 PM 37.6 °F 32.3 °F 37.0 °F 98% 29.92 in 1.0 mi North 6.9 mph - 0.07 in   Overcast
1:35 PM 37.9 °F 34.4 °F 37.6 °F 99% 29.91 in 1.0 mi North 4.6 mph - 0.14 in   Overcast
1:55 PM 38.5 °F 34.1 °F 38.3 °F 99% 29.89 in 0.8 mi North 5.8 mph - 0.23 in   Overcast
2:15 PM 39.0 °F 34.8 °F 38.7 °F 99% 29.86 in 2.0 mi North 5.8 mph - 0.05 in Rain Rain
2:35 PM 39.4 °F 32.7 °F 38.8 °F 98% 29.83 in 2.5 mi NNE 10.4 mph - 0.10 in Rain Rain
2:55 PM 39.7 °F 33.7 °F 39.2 °F 98% 29.81 in 0.8 mi North 9.2 mph - 0.22 in   Overcast
3:15 PM 39.7 °F 35.6 °F 39.4 °F 99% 29.82 in 1.2 mi North 5.8 mph - 0.05 in Rain Light Rain
3:35 PM 39.9 °F 33.4 °F 39.4 °F 98% 29.80 in 1.0 mi NNE 10.4 mph - 0.16 in   Unknown
3:55 PM 40.3 °F 33.4 °F 39.6 °F 97% 29.77 in 1.5 mi NE 11.5 mph 19.6 mph 0.26 in Rain Light Rain
4:15 PM 40.8 °F 36.2 °F 40.1 °F 97% 29.77 in 2.5 mi North 6.9 mph - 0.05 in Rain Heavy Rain
4:35 PM 41.2 °F 37.3 °F 40.8 °F 99% 29.75 in 0.8 mi NNW 5.8 mph - 0.20 in   Unknown
4:55 PM 41.0 °F 37.1 °F 40.8 °F 99% 29.75 in 1.2 mi NW 5.8 mph - 0.32 in   Overcast
5:15 PM 40.5 °F 35.1 °F 40.3 °F 99% 29.75 in 4.0 mi North 8.1 mph - 0.03 in Rain Rain
5:35 PM 41.4 °F 38.4 °F 41.0 °F 99% 29.74 in 5.0 mi North 4.6 mph - 0.06 in Rain Rain
5:55 PM 41.9 °F - 41.2 °F 97% 29.73 in 4.0 mi Calm Calm - 0.09 in Rain Rain
6:15 PM 41.2 °F 38.2 °F 41.0 °F 99% 29.73 in 5.0 mi NW 4.6 mph - 0.01 in   Drizzle
6:35 PM 41.2 °F 39.2 °F 41.0 °F 99% 29.74 in 4.0 mi WNW 3.5 mph - 0.03 in Rain Rain
6:55 PM 41.2 °F 37.3 °F 41.0 °F 99% 29.72 in 4.0 mi NW 5.8 mph - 0.04 in   Drizzle
7:15 PM 41.4 °F 39.4 °F 41.2 °F 99% 29.71 in 5.0 mi WNW 3.5 mph - 0.01 in   Drizzle
7:35 PM 41.2 °F 37.3 °F 41.2 °F 100% 29.70 in 4.0 mi NNW 5.8 mph - 0.01 in   Drizzle
7:55 PM 41.2 °F 38.2 °F 41.2 °F 100% 29.70 in 3.0 mi NW 4.6 mph - 0.02 in   Heavy Drizzle
8:15 PM 41.4 °F 39.4 °F 41.4 °F 100% 29.69 in 4.0 mi NNW 3.5 mph - 0.01 in Rain Light Rain
8:35 PM 41.5 °F 38.6 °F 41.5 °F 100% 29.67 in 5.0 mi North 4.6 mph - 0.07 in Rain Rain
8:55 PM 41.9 °F - 41.9 °F 100% 29.67 in 4.0 mi Calm Calm - 0.11 in Rain Rain
9:15 PM 41.9 °F - 41.9 °F 100% 29.65 in 0.8 mi Calm Calm - 0.14 in Rain , Thunderstorm Light Thunderstorms and Rain
9:35 PM 42.1 °F 39.2 °F 42.1 °F 100% 29.65 in 7.0 mi NNW 4.6 mph - 0.17 in Rain Light Rain
9:55 PM 42.1 °F - 42.1 °F 100% 29.65 in 7.0 mi Calm Calm - 0.18 in Rain Light Rain
10:15 PM 42.3 °F 40.5 °F 42.3 °F 100% 29.65 in 7.0 mi North 3.5 mph - N/A   Drizzle
10:35 PM 42.8 °F - 42.8 °F 100% 29.65 in 7.0 mi Calm Calm - 0.02 in Rain Rain
10:55 PM 43.2 °F 41.5 °F 42.8 °F 99% 29.65 in 5.0 mi NW 3.5 mph - 0.05 in Rain Rain
11:15 PM 43.0 °F - 42.8 °F 99% 29.65 in 7.0 mi Calm Calm - N/A   Drizzle
11:35 PM 43.0 °F - 43.0 °F 100% 29.65 in 5.0 mi Calm Calm - 0.01 in   Drizzle
11:55 PM 42.8 °F - 42.8 °F 100% 29.63 in 7.0 mi Calm Calm - 0.01 in   Drizzle